Weather History for Bowling Green, KY

Change the Weather History Date:

Monday, November 19, 2012

  Actual Average Record
Temperature  
Mean Temperature 49 °F 47 °F  
Max Temperature 67 °F 58 °F 83 °F (1930)
Min Temperature 31 °F 37 °F 17 °F (1951)
Degree Days  
Heating Degree Days 16 18  
Month to date heating degree days 332 278  
Since 1 July heating degree days 606 541  
Cooling Degree Days 0 0  
Month to date cooling degree days 0 0  
Year to date cooling degree days 1935 1488  
Moisture  
Dew Point 34 °F    
Average Humidity 61    
Maximum Humidity 92    
Minimum Humidity 29    
Precipitation  
Precipitation 0.00 in 0.15 in 2.47 in (1988)
Month to date precipitation 0.92 2.53  
Year to date precipitation 35.34 43.40  
Snow  
Snow 0.00 in 0.00 in 0.20 in (1968)
Month to date snowfall 0.0 0.0  
Since 1 July snowfall 0.0 T  
Since 1 September snowfall 0.0 T  
Snow Depth 0.00 in    
Sea Level Pressure  
Sea Level Pressure 30.29 in    
Wind  
Wind Speed 0 mph (North)    
Max Wind Speed 8 mph    
Max Gust Speed 15 mph    
Visibility 10 miles    
Events      
T = Trace of Precipitation, MM = Missing Value Source: NWS Daily Summary

Daily Weather History Graph

Daily Weather History Graph

Search for Another Location

Airport:

Trip Planner

Search our weather history database for the weather conditions in past years. The results will help you decide how hot, cold, wet, or windy it might be!

Date:

Astronomy

Nov. 19, 2012 Rise Set
Actual Time 6:28 AM CST 4:33 PM CST
Civil Twilight 6:00 AM CST 5:01 PM CST
Nautical Twilight 5:29 AM CST 5:32 PM CST
Astronomical Twilight 4:58 AM CST 6:03 PM CST
Moon 11:34 AM CST (11/19) 10:55 PM CST (11/19)
Length of Visible Light 11h 00m
Length of Day
10h 04m
Waxing Crescent, 41% of the Moon is Illuminated
Nov 19
Waxing Crescent
Nov 20
First Quarter
Nov 28
Full
Dec 6
Last Quarter
Dec 13
New

Hourly Weather History & Observations

Time (CST) Temp. Dew Point Humidity Pressure Visibility Wind Dir Wind Speed Gust Speed Precip Events Conditions
12:53 AM 36.0 °F 30.0 °F 79% 30.34 in 10.0 mi Calm Calm - N/A   Clear
1:53 AM 36.0 °F 30.9 °F 82% 30.34 in 10.0 mi Calm Calm - N/A   Clear
2:53 AM 34.0 °F 30.9 °F 89% 30.34 in 10.0 mi Calm Calm - N/A   Clear
3:53 AM 32.0 °F 28.0 °F 85% 30.34 in 9.0 mi Calm Calm - N/A   Clear
4:53 AM 32.0 °F 28.9 °F 88% 30.34 in 10.0 mi Calm Calm - N/A   Clear
5:53 AM 33.1 °F 28.9 °F 85% 30.35 in 9.0 mi Calm Calm - N/A   Clear
6:53 AM 32.0 °F 28.9 °F 88% 30.35 in 7.0 mi Calm Calm - N/A   Clear
7:53 AM 36.0 °F 33.1 °F 89% 30.36 in 7.0 mi Calm Calm - N/A   Clear
8:53 AM 42.1 °F 36.0 °F 79% 30.35 in 9.0 mi Calm Calm - N/A   Clear
9:53 AM 48.0 °F 37.9 °F 68% 30.36 in 10.0 mi Calm Calm - N/A   Clear
10:53 AM 53.1 °F 37.9 °F 57% 30.34 in 9.0 mi Calm Calm - N/A   Clear
11:53 AM 61.0 °F 39.0 °F 44% 30.31 in 10.0 mi Calm Calm - N/A   Clear
12:53 PM 64.0 °F 34.0 °F 33% 30.27 in 10.0 mi Calm Calm - N/A   Clear
1:53 PM 66.0 °F 33.1 °F 29% 30.25 in 10.0 mi Calm Calm - N/A   Clear
2:53 PM 66.9 °F 33.1 °F 28% 30.24 in 10.0 mi North 3.5 mph - N/A   Clear
3:53 PM 62.1 °F 36.0 °F 38% 30.23 in 10.0 mi Calm Calm - N/A   Clear
4:53 PM 57.0 °F 32.0 °F 39% 30.22 in 10.0 mi Calm Calm - N/A   Clear
5:53 PM 55.9 °F 33.1 °F 42% 30.22 in 10.0 mi Calm Calm - N/A   Clear
6:53 PM 53.1 °F 39.0 °F 59% 30.23 in 10.0 mi Calm Calm - N/A   Clear
7:53 PM 52.0 °F 37.9 °F 59% 30.22 in 10.0 mi Calm Calm - N/A   Partly Cloudy
9:53 PM 51.1 °F 37.0 °F 59% 30.20 in 10.0 mi Calm Calm - N/A   Clear
10:53 PM 50.0 °F 37.9 °F 63% 30.19 in 10.0 mi Calm Calm - N/A   Mostly Cloudy
11:53 PM 48.9 °F 39.9 °F 71% 30.18 in 10.0 mi Calm Calm - N/A   Mostly Cloudy